Pullman, WA

4:54 PM PDT on July 27, 2017 (GMT -0700)
Pullman-Moscow Regional

Weather History for KPUW - December, 2013

Change the Weather History Date:

Thursday, December 26, 2013

  Actual Average Record
Temperature  
Mean Temperature 35 °F 30 °F  
Max Temperature 40 °F 35 °F 57 °F (1980)
Min Temperature 30 °F 24 °F 0 °F (1948)
Degree Days  
Heating Degree Days 30 35  
Month to date heating degree days 1000 902  
Since 1 July heating degree days 2689 2646  
Cooling Degree Days 0 0  
Month to date cooling degree days 0 0  
Year to date cooling degree days 334 213  
Moisture  
Dew Point 26 °F    
Average Humidity 66    
Maximum Humidity 72    
Minimum Humidity 59    
Precipitation  
Precipitation 0.00 in 0.05 in 1.06 in (1996)
Month to date precipitation 1.38 1.36  
Year to date precipitation 14.85 16.68  
Sea Level Pressure  
Sea Level Pressure 30.40 in    
Wind  
Wind Speed 8 mph (East)    
Max Wind Speed 15 mph    
Max Gust Speed 20 mph    
Visibility 10 miles    
Events      
T = Trace of Precipitation, MM = Missing Value Source: NWS Daily Summary

Daily Weather History Graph

Daily Weather History Graph

Search for Another Location

Airport or City:

Trip Planner

Search our weather history database for the weather conditions in past years. The results will help you decide how hot, cold, wet, or windy it might be!

Date:

Astronomy

Dec. 26, 2013 Rise Set
Actual Time 7:32 AM PST 4:06 PM PST
Civil Twilight 6:57 AM PST 4:41 PM PST
Nautical Twilight 6:18 AM PST 5:20 PM PST
Astronomical Twilight 5:41 AM PST 5:56 PM PST
Moon 12:49 AM PST (12/26) 11:58 AM PST (12/26)
Length of Visible Light 9h 44m
Length of Day
8h 33m
Last Quarter, 37% of the Moon is Illuminated
Dec 26
Last Quarter
Jan 1
New
Jan 7
First Quarter
Jan 15
Full
Jan 23
Last Quarter

Hourly Weather History & Observations

Time (PST) Temp. Windchill Dew Point Humidity Pressure Visibility Wind Dir Wind Speed Gust Speed Precip Events Conditions
12:53 AM 30.9 °F - 23.0 °F 72% 30.45 in 10.0 mi Calm Calm - N/A   Clear
1:53 AM 30.0 °F 25.2 °F 23.0 °F 75% 30.46 in 10.0 mi East 4.6 mph - N/A   Clear
2:53 AM 32.0 °F 24.8 °F 24.1 °F 73% 30.45 in 10.0 mi ESE 8.1 mph - N/A   Clear
3:53 AM 30.9 °F 24.3 °F 23.0 °F 72% 30.44 in 10.0 mi ENE 6.9 mph - N/A   Clear
4:53 AM 30.9 °F 25.2 °F 23.0 °F 72% 30.45 in 10.0 mi ENE 5.8 mph - N/A   Clear
5:53 AM 30.9 °F 24.3 °F 23.0 °F 72% 30.44 in 10.0 mi East 6.9 mph - N/A   Clear
6:53 AM 30.9 °F 21.7 °F 23.0 °F 72% 30.43 in 10.0 mi East 11.5 mph - N/A   Clear
7:53 AM 32.0 °F 26.4 °F 24.1 °F 73% 30.43 in 10.0 mi East 5.8 mph - N/A   Partly Cloudy
8:53 AM 34.0 °F 28.8 °F 25.0 °F 70% 30.43 in 10.0 mi East 5.8 mph - N/A   Clear
9:53 AM 37.0 °F 30.4 °F 26.1 °F 65% 30.43 in 10.0 mi ESE 9.2 mph - N/A   Clear
10:53 AM 37.0 °F 28.9 °F 26.1 °F 65% 30.42 in 10.0 mi SE 12.7 mph - N/A   Clear
11:53 AM 37.9 °F 30.5 °F 27.0 °F 65% 30.40 in 10.0 mi ESE 11.5 mph - N/A   Clear
12:53 PM 39.9 °F 35.8 °F 27.0 °F 60% 30.39 in 10.0 mi East 5.8 mph - N/A   Clear
1:53 PM 39.0 °F 34.0 °F 28.0 °F 65% 30.38 in 10.0 mi East 6.9 mph - N/A   Clear
2:53 PM 39.0 °F 32.8 °F 28.0 °F 65% 30.38 in 10.0 mi ESE 9.2 mph - N/A   Clear
3:53 PM 37.0 °F 32.4 °F 28.0 °F 70% 30.38 in 10.0 mi East 5.8 mph - N/A   Clear
4:53 PM 37.9 °F 32.1 °F 27.0 °F 65% 30.37 in 10.0 mi ESE 8.1 mph - N/A   Clear
5:53 PM 37.9 °F 30.5 °F 27.0 °F 65% 30.35 in 10.0 mi ESE 11.5 mph - N/A   Clear
6:53 PM 37.9 °F 31.5 °F 27.0 °F 65% 30.35 in 10.0 mi ESE 9.2 mph - N/A   Clear
7:53 PM 37.0 °F 30.4 °F 27.0 °F 67% 30.35 in 10.0 mi East 9.2 mph - N/A   Clear
8:53 PM 37.9 °F 30.9 °F 26.1 °F 62% 30.35 in 10.0 mi ESE 10.4 mph - N/A   Clear
9:53 PM 36.0 °F 29.6 °F 26.1 °F 67% 30.34 in 10.0 mi East 8.1 mph - N/A   Clear
10:53 PM 35.1 °F 28.6 °F 26.1 °F 70% 30.35 in 10.0 mi East 8.1 mph - N/A   Clear
11:53 PM 35.1 °F 27.9 °F 26.1 °F 70% 30.34 in 10.0 mi East 9.2 mph - N/A   Clear